FREGAT DEB, 40078

Orbit data source: Space-Track

FREGAT DEB, 40078 is space debris in SSO originally from a launch on Tue, 08 Jul 2014 UTC launched from the Tyuratam Missile And Space Complex (TTMTR). Debris objects in space refer to the collection of defunct objects orbiting the Earth. Examples of debris include non-operational satellites, rocket bodies, and fragments generated from explosions, collisions, or faulty payload assembly.

Loading next visibility...
FREGAT DEB details
Identifier
40078, 2014-037K
Orbit
SSO
Last TLE update10 hours ago
Origin
Flag of CISLavochkin (CIS)
ManufacturerLavochkin
MissionSpacecraft
Bus & MotorUnknown
MassUnknown
Launch date (UTC)
2014-07-08 (10 years ago)
Launch vehicleUnknown
Launch site
Tyuratam Missile And Space Complex (TTMTR)
Object type
Payload
Rocket body
Debris
Shape & HBRIrr + 1 Truss, 3 m
Radar Cross Section7.500 m², Large (>1 m²)

Expand to show TLE details & history

TLE from 10 hours ago
0 FREGAT DEB
1 40078U 14037K   24361.07926155  .00002217  00000-0  47371-3 0  9992
2 40078  98.0121 348.0384 0131493 299.9328  58.8865 14.54556789554957
Epoch: 2024-12-26T01:54Z
Definitive object data (Epoch: 2024-12-26T01:54:08.197Z)
Latitude-0.00003°
Longitude-135.55956°
Altitude666.519 km
Speed7.549 km/s
True Right ascension23h 12m 09s
True Declination0° 00' 00"
Sunlit
Object was in daylight at TLE epoch
Visualization TLE readout
Latitude-12.12804°
Longitude-133.44231°
Altitude654.634 km
Speed7.562 km/s
Apparent Right ascension23h 14m 46s
Apparent Declination-25° 12' 15"
Sunlit
Object is in daylight
Visualization observer readout
Local Sidereal Time11:06:34
Azimuth352.726° N
Elevation-75.188°
Doppler factor1
Orbital elements
Apogee altitude801.06 km
Perigee altitude614.707 km
Semi-major axis7,086.021 km
Eccentricity0.0131493
Inclination98.0121°
RAAN348.0384°
Arg. of periapsis299.9328°
True anomaly60.18747°
Mean anomaly58.8865°
Eccentric anomaly59.53589°
Mean motion3.63864 °/min
BSTAR0.00047371
Orbital period98.94 mins
Loading maneuver chart data...
Loading historical data...
Loading historical data...
Loading historical data...
Loading historical data...
Loading historical data...
Loading historical data...
Loading historical data...

FREGAT DEB Visibility forecast

Observer location: undefined°, undefined

Span
Click to sort rows by Start time (UTC) header in descending order
Start Az.
Max El. time (UTC)
Max El. Az.
Max El.
End time (UTC)
End Az.
10 mins2024-12-26 12:22:10.761Z9.289° NNE2024-12-26 12:27:10.761Z296.941° NW44.189°2024-12-26 12:32:10.761Z200.133° SSW
8 mins2024-12-26 23:29:10.761Z173.23° S2024-12-26 23:33:10.761Z299.254° NW43.571°2024-12-26 23:37:10.761Z343.493° N
8 mins2024-12-27 11:31:10.761Z40.104° NE2024-12-27 11:34:10.761Z85.824° E28.941°2024-12-27 11:39:10.761Z160.317° S
|